EW5790 Weather Reports


Display with metric or nautical units.
time (UTC)temp
F
wind
direction
speed
MPH
gust
MPH
rain 1hr
in
rain 24hr
in
rain mn
in
humidity
%
barometer
mb
20260906194552 87 11 0.0 0.0 0.00 0.37 0.01 65 1011.5
20260906193047 87 16 0.0 0.0 0.00 0.37 0.01 64 1011.4
20260906191542 87 146 0.0 0.0 0.00 0.37 0.01 62 1011.4
20260906190043 87 117 0.0 0.0 0.00 0.37 0.01 65 1011.3
20260906184533 87 60 0.0 0.0 0.00 0.37 0.01 63 1011.5
20260906183045 87 340 0.0 0.0 0.00 0.37 0.01 62 1011.6
20260906181524 86 355 0.0 0.0 0.00 0.37 0.01 64 1011.7
20260906180022 86 338 0.0 0.0 0.00 0.37 0.01 63 1012.1
20260906174515 84 321 0.0 0.0 0.00 0.37 0.01 64 1012.4
20260906173012 85 130 0.0 0.0 0.00 0.37 0.01 64 1012.4
20260906171516 84 36 0.0 0.0 0.00 0.37 0.01 64 1012.5
20260906170003 84 146 0.0 0.0 0.00 0.37 0.01 63 1012.7
20260906164601 84 269 0.0 0.0 0.00 0.37 0.01 62 1012.9
20260906163052 83 60 0.0 0.0 0.00 0.37 0.01 62 1012.8
20260906161554 83 136 0.0 0.0 0.00 0.37 0.01 62 1013.0
20260906160044 83 122 0.0 0.0 0.00 0.37 0.01 61 1013.0
20260906154539 83 5 0.0 0.0 0.00 0.37 0.01 59 1013.2
20260906153037 82 275 0.0 0.0 0.00 0.37 0.01 55 1013.0
20260906151534 82 146 0.0 0.0 0.00 0.37 0.01 49 1013.0
20260906150026 80 113 0.0 0.0 0.00 0.37 0.01 34 1013.1
20260906144521 77 355 0.0 0.0 0.00 0.37 0.01 1 1013.2
20260906143017 76 250 0.0 0.0 0.00 0.37 0.01 1 1013.2
20260906141518 76 295 0.0 0.0 0.00 0.37 0.01 1 1013.3
20260906140017 76 298 0.0 0.0 0.00 0.37 0.01 1 1013.1
20260906134503 75 123 0.0 0.0 0.00 0.37 0.01 1 1013.2
20260906133106 74 123 0.0 0.0 0.00 0.37 0.01 1 1013.2
20260906131555 73 123 0.0 0.0 0.00 0.37 0.01 1 1013.2
20260906130059 72 96 0.0 0.0 0.00 0.37 0.01 1 1013.1
20260906124545 71 95 0.0 0.0 0.00 0.37 0.01 1 1013.0
20260906123043 70 96 0.0 0.0 0.00 0.37 0.01 1 1013.0
20260906121542 69 96 0.0 0.0 0.00 0.37 0.01 1 1012.7
20260906120032 69 96 0.0 0.0 0.00 0.37 0.01 1 1012.5
20260906114533 69 96 0.0 0.0 0.00 0.37 0.01 1 1012.3
20260906113041 69 96 0.0 0.0 0.00 0.37 0.01 1 1012.3
20260906111522 69 96 0.0 0.0 0.00 0.37 0.01 1 1012.2
20260906110018 69 96 0.0 0.0 0.00 0.37 0.01 1 1012.0
20260906104512 69 96 0.0 0.0 0.00 0.37 0.01 1 1011.9
20260906103007 69 96 0.0 0.0 0.00 0.37 0.01 1 1011.8
20260906101503 69 96 0.0 0.0 0.00 0.37 0.01 1 1011.9
20260906100057 69 96 0.0 0.0 0.00 0.37 0.01 1 1011.7
20260906094554 69 96 0.0 0.0 0.00 0.37 0.01 1 1011.5
20260906093049 70 96 0.0 0.0 0.00 0.37 0.01 1 1011.6
20260906091545 70 96 0.0 0.0 0.00 0.37 0.01 1 1011.4
20260906090042 70 96 0.0 0.0 0.00 0.37 0.01 1 1011.2
20260906084536 70 96 0.0 0.0 0.00 0.37 0.01 1 1011.3
20260906083032 70 96 0.0 0.0 0.01 0.37 0.01 1 1011.5
20260906081540 70 96 0.0 0.0 0.01 0.37 0.01 1 1011.4
20260906080022 70 96 0.0 0.0 0.01 0.37 0.01 1 1011.1
20260906074521 70 96 0.0 0.0 0.01 0.37 0.01 1 1011.2
20260906073014 70 96 0.0 0.0 0.00 0.36 0.00 1 1011.2
20260906071510 70 96 0.0 0.0 0.00 0.36 0.00 1 1011.3
20260906070006 71 96 0.0 0.0 0.00 0.36 0.00 1 1011.3
20260906064503 71 96 0.0 0.0 0.00 0.36 0.00 1 1011.3
20260906063058 71 96 0.0 0.0 0.00 0.36 0.00 1 1011.4
20260906061557 71 96 0.0 0.0 0.00 0.36 0.00 1 1011.5
20260906060048 71 96 0.0 0.0 0.00 0.36 0.00 1 1011.6
20260906054544 71 96 0.0 0.0 0.00 0.36 0.00 1 1011.8
20260906053040 71 96 0.0 0.0 0.00 0.36 0.00 1 1011.9
20260906051539 71 96 0.0 0.0 0.00 0.36 0.00 1 1012.0
20260906050042 72 96 0.0 0.0 0.00 0.36 0.00 1 1012.0
20260906044535 72 309 0.0 0.0 0.00 0.36 0.00 1 1011.9
20260906043022 72 309 0.0 0.0 0.00 0.36 0.00 1 1012.0
20260906041518 72 309 0.0 0.0 0.01 0.36 0.00 1 1011.7
20260906040023 72 309 0.0 0.0 0.01 0.36 0.00 1 1012.1
20260906034510 72 100 0.0 0.0 0.01 0.36 0.36 1 1011.8
20260906033013 72 100 0.0 0.0 0.01 0.36 0.36 1 1011.8
20260906031500 72 100 0.0 0.0 0.00 0.35 0.35 1 1011.5
20260906030057 72 100 0.0 0.0 0.00 0.35 0.35 1 1011.4
20260906024551 72 100 0.0 0.0 0.01 0.35 0.35 1 1011.4
20260906023050 72 100 0.0 0.0 0.01 0.35 0.35 1 1011.4
20260906021544 72 100 0.0 0.0 0.02 0.35 0.35 1 1011.2
20260906020039 72 100 0.0 0.0 0.01 0.34 0.34 1 1010.7
20260906014536 72 100 0.0 0.0 0.02 0.34 0.34 1 1010.6
20260906013030 72 100 0.0 0.0 0.03 0.34 0.34 1 1010.8
20260906011533 72 100 0.0 0.0 0.03 0.33 0.33 1 1010.8
20260906010021 72 100 0.0 0.0 0.04 0.33 0.33 1 1010.6
20260906004516 72 100 0.0 0.0 0.05 0.32 0.32 1 1010.5
20260906003013 72 100 0.0 0.0 0.06 0.31 0.31 1 1010.7
20260906001509 72 100 0.0 0.0 0.07 0.30 0.30 1 1011.0
20260906000004 72 100 0.0 0.0 0.09 0.28 0.28 1 1010.9
20260905234559 72 120 0.0 0.0 0.10 0.27 0.27 1 1011.0
20260905233055 72 349 0.0 0.0 0.12 0.25 0.25 1 1010.9
20260905231550 72 355 0.0 0.0 0.15 0.23 0.23 1 1010.7
20260905230051 73 306 0.0 0.0 0.19 0.20 0.20 6 1011.3
20260905224559 73 90 0.0 0.0 0.17 0.17 0.17 11 1011.2
20260905223037 73 134 0.0 0.0 0.13 0.13 0.13 13 1011.0
20260905221537 77 133 0.0 1.0 0.08 0.08 0.08 49 1011.4
20260905220027 88 273 0.0 0.0 0.01 0.01 0.01 62 1010.7
20260905214523 96 230 0.0 0.0 0.00 0.05 0.00 49 1010.1
20260905213018 95 165 0.0 0.0 0.00 0.05 0.00 50 1009.9
20260905211515 96 275 0.0 0.0 0.00 0.05 0.00 49 1010.0
20260905210010 95 332 0.0 0.0 0.00 0.05 0.00 49 1010.2
20260905204507 95 276 0.0 0.0 0.00 0.10 0.00 50 1010.2
20260905203002 95 297 0.0 0.0 0.00 0.10 0.00 50 1010.5
20260905201600 96 269 0.0 0.0 0.00 0.10 0.00 50 1010.7
20260905200058 96 347 0.0 0.0 0.00 0.10 0.00 49 1010.9